27-07-2022, 00:00:01,    346,    0.0,   12.4,   0.00,   0.00, 1017.8,   62.6, -999.0
27-07-2022, 00:00:11,    346,    0.0,   12.4,   0.00,   0.00, 1017.8,   62.5, -999.0
27-07-2022, 00:00:21,    346,    0.0,   12.4,   0.00,   0.00, 1017.8,   62.5, -999.0
27-07-2022, 00:00:31,    346,    0.0,   12.4,   0.00,   0.00, 1017.8,   62.6, -999.0
27-07-2022, 00:00:41,    346,    0.0,   12.3,   0.00,   0.00, 1017.8,   62.6, -999.0
27-07-2022, 00:00:51,    346,    0.0,   12.4,   0.00,   0.00, 1017.8,   62.7, -999.0
27-07-2022, 00:01:00,    346,    0.0,   12.4,   0.00,   0.00, 1017.8,   62.7, -999.0
27-07-2022, 00:01:11,    346,    0.1,   12.4,   0.00,   0.00, 1017.9,   62.9, -999.0
27-07-2022, 00:01:21,    346,    0.0,   12.3,   0.00,   0.00, 1017.9,   63.0, -999.0
27-07-2022, 00:01:30,    346,    0.0,   12.3,   0.00,   0.00, 1017.8,   62.8, -999.0
27-07-2022, 00:01:41,    346,    0.0,   12.4,   0.00,   0.00, 1017.8,   62.9, -999.0
27-07-2022, 00:01:50,    346,    0.0,   12.4,   0.00,   0.00, 1017.8,   62.9, -999.0
27-07-2022, 00:02:00,    346,    0.0,   12.4,   0.00,   0.00, 1017.9,   62.9, -999.0
27-07-2022, 00:02:10,    346,    0.0,   12.4,   0.00,   0.00, 1017.8,   62.8, -999.0
27-07-2022, 00:02:20,    346,    0.0,   12.4,   0.00,   0.00, 1017.9,   63.0, -999.0
27-07-2022, 00:02:30,    346,    0.0,   12.3,   0.00,   0.00, 1017.8,   62.8, -999.0
27-07-2022, 00:02:40,    346,    0.0,   12.4,   0.00,   0.00, 1017.8,   62.8, -999.0
27-07-2022, 00:02:50,    346,    0.0,   12.3,   0.00,   0.00, 1017.8,   62.8, -999.0
27-07-2022, 00:03:00,    346,    0.0,   12.3,   0.00,   0.00, 1017.8,   62.8, -999.0
27-07-2022, 00:03:10,    346,    0.0,   12.3,   0.00,   0.00, 1017.8,   62.8, -999.0
27-07-2022, 00:03:20,    346,    0.0,   12.3,   0.00,   0.00, 1017.9,   63.1, -999.0
27-07-2022, 00:03:30,    346,    0.0,   12.3,   0.00,   0.00, 1017.8,   63.0, -999.0
27-07-2022, 00:03:40,    346,    0.3,   12.4,   0.00,   0.00, 1017.9,   63.4, -999.0
27-07-2022, 00:03:50,    346,    0.3,   12.4,   0.00,   0.00, 1017.9,   63.6, -999.0
27-07-2022, 00:03:59,    346,    0.1,   12.4,   0.00,   0.00, 1017.9,   63.5, -999.0
27-07-2022, 00:04:10,    346,    0.0,   12.4,   0.00,   0.00, 1017.9,   63.3, -999.0
27-07-2022, 00:04:20,    347,    0.0,   12.4,   0.00,   0.00, 1017.9,   63.2, -999.0
27-07-2022, 00:04:29,    346,    0.0,   12.3,   0.00,   0.00, 1017.8,   63.1, -999.0
27-07-2022, 00:04:39,    346,    0.0,   12.3,   0.00,   0.00, 1017.8,   63.1, -999.0
27-07-2022, 00:04:50,    346,    0.0,   12.3,   0.00,   0.00, 1017.8,   63.1, -999.0
27-07-2022, 00:04:59,    346,    0.0,   12.3,   0.00,   0.00, 1017.9,   63.2, -999.0
27-07-2022, 00:05:09,    346,    0.0,   12.2,   0.00,   0.00, 1017.8,   63.1, -999.0
27-07-2022, 00:05:19,    346,    0.0,   12.2,   0.00,   0.00, 1017.8,   63.2, -999.0
27-07-2022, 00:05:29,    346,    0.0,   12.4,   0.00,   0.00, 1017.8,   63.4, -999.0
27-07-2022, 00:05:39,    346,    0.0,   12.3,   0.00,   0.00, 1017.8,   63.4, -999.0
27-07-2022, 00:05:49,    346,    0.0,   12.3,   0.00,   0.00, 1017.8,   63.3, -999.0
27-07-2022, 00:05:59,    346,    0.0,   12.3,   0.00,   0.00, 1017.8,   63.2, -999.0
27-07-2022, 00:06:09,    346,    0.0,   12.3,   0.00,   0.00, 1017.8,   63.4, -999.0
27-07-2022, 00:06:19,    346,    0.0,   12.3,   0.00,   0.00, 1017.8,   63.3, -999.0
27-07-2022, 00:06:29,    346,    0.0,   12.3,   0.00,   0.00, 1017.8,   63.3, -999.0
27-07-2022, 00:06:39,    346,    0.0,   12.2,   0.00,   0.00, 1017.8,   63.3, -999.0
27-07-2022, 00:06:49,    346,    0.0,   12.3,   0.00,   0.00, 1017.8,   63.3, -999.0
27-07-2022, 00:06:59,    346,    0.0,   12.3,   0.00,   0.00, 1017.8,   63.3, -999.0
27-07-2022, 00:07:08,    346,    0.0,   12.3,   0.00,   0.00, 1017.8,   63.3, -999.0
27-07-2022, 00:07:19,    346,    0.0,   12.3,   0.00,   0.00, 1017.8,   63.4, -999.0
27-07-2022, 00:07:28,    346,    0.0,   12.2,   0.00,   0.00, 1017.8,   63.4, -999.0
27-07-2022, 00:07:38,    346,    0.0,   12.2,   0.00,   0.00, 1017.8,   63.4, -999.0
27-07-2022, 00:07:48,    346,    0.0,   12.3,   0.00,   0.00, 1017.8,   63.3, -999.0
27-07-2022, 00:07:58,    346,    0.0,   12.2,   0.00,   0.00, 1017.8,   63.6, -999.0
27-07-2022, 00:08:08,    346,    0.0,   12.2,   0.00,   0.00, 1017.8,   63.5, -999.0
27-07-2022, 00:08:18,    346,    0.0,   12.2,   0.00,   0.00, 1017.8,   63.6, -999.0
27-07-2022, 00:08:28,    346,    0.0,   12.2,   0.00,   0.00, 1017.8,   63.6, -999.0
27-07-2022, 00:08:38,    346,    0.0,   12.2,   0.00,   0.00, 1017.8,   63.6, -999.0
27-07-2022, 00:08:48,    346,    0.0,   12.2,   0.00,   0.00, 1017.8,   63.6, -999.0
27-07-2022, 00:08:58,    346,    0.0,   12.2,   0.00,   0.00, 1017.8,   63.6, -999.0
27-07-2022, 00:09:08,    346,    0.0,   12.1,   0.00,   0.00, 1017.8,   63.6, -999.0
27-07-2022, 00:09:18,    346,    0.0,   12.1,   0.00,   0.00, 1017.8,   63.6, -999.0
27-07-2022, 00:09:28,    346,    0.0,   12.1,   0.00,   0.00, 1017.8,   63.7, -999.0
27-07-2022, 00:09:38,    346,    0.0,   12.2,   0.00,   0.00, 1017.8,   63.7, -999.0
27-07-2022, 00:09:48,    346,    0.0,   12.1,   0.00,   0.00, 1017.8,   63.7, -999.0
27-07-2022, 00:09:58,    346,    0.0,   12.1,   0.00,   0.00, 1017.8,   63.6, -999.0
27-07-2022, 00:10:07,    346,    0.0,   12.1,   0.00,   0.00, 1017.8,   63.7, -999.0
27-07-2022, 00:10:18,    346,    0.0,   12.1,   0.00,   0.00, 1017.8,   63.9, -999.0
27-07-2022, 00:10:28,    346,    0.0,   12.2,   0.00,   0.00, 1017.8,   63.9, -999.0
27-07-2022, 00:10:37,    346,    0.0,   12.1,   0.00,   0.00, 1017.8,   63.9, -999.0
27-07-2022, 00:10:47,    346,    0.0,   12.1,   0.00,   0.00, 1017.8,   63.8, -999.0
27-07-2022, 00:10:58,    346,    0.0,   12.1,   0.00,   0.00, 1017.8,   64.0, -999.0
27-07-2022, 00:11:07,    346,    0.0,   12.1,   0.00,   0.00, 1017.8,   63.9, -999.0
27-07-2022, 00:11:17,    346,    0.0,   12.1,   0.00,   0.00, 1017.8,   64.0, -999.0
27-07-2022, 00:11:27,    346,    0.0,   12.1,   0.00,   0.00, 1017.8,   64.0, -999.0
27-07-2022, 00:11:37,    346,    0.0,   12.1,   0.00,   0.00, 1017.8,   64.1, -999.0
27-07-2022, 00:11:47,    346,    0.0,   12.1,   0.00,   0.00, 1017.8,   64.2, -999.0
27-07-2022, 00:11:57,    346,    0.0,   12.1,   0.00,   0.00, 1017.8,   64.2, -999.0
27-07-2022, 00:12:07,    346,    0.0,   12.1,   0.00,   0.00, 1017.8,   64.2, -999.0
27-07-2022, 00:12:17,    346,    0.0,   12.0,   0.00,   0.00, 1017.8,   64.2, -999.0
27-07-2022, 00:12:27,    346,    0.0,   12.1,   0.00,   0.00, 1017.8,   64.3, -999.0
27-07-2022, 00:12:37,    346,    0.0,   12.2,   0.00,   0.00, 1017.8,   64.3, -999.0
27-07-2022, 00:12:47,    346,    0.0,   12.2,   0.00,   0.00, 1017.8,   64.1, -999.0
27-07-2022, 00:12:57,    346,    0.0,   12.1,   0.00,   0.00, 1017.8,   64.0, -999.0
27-07-2022, 00:13:07,    346,    0.0,   12.1,   0.00,   0.00, 1017.8,   64.2, -999.0
27-07-2022, 00:13:16,    346,    0.0,   12.2,   0.00,   0.00, 1017.8,   64.2, -999.0
27-07-2022, 00:13:27,    346,    0.0,   12.1,   0.00,   0.00, 1017.8,   64.3, -999.0
27-07-2022, 00:13:36,    346,    0.0,   12.1,   0.00,   0.00, 1017.8,   64.2, -999.0
27-07-2022, 00:13:46,    347,    0.0,   12.1,   0.00,   0.00, 1017.8,   64.4, -999.0
27-07-2022, 00:13:56,    346,    0.0,   12.1,   0.00,   0.00, 1017.8,   64.2, -999.0
27-07-2022, 00:14:06,    347,    0.0,   12.1,   0.00,   0.00, 1017.8,   64.3, -999.0
27-07-2022, 00:14:16,    346,    0.0,   12.1,   0.00,   0.00, 1017.8,   64.3, -999.0
27-07-2022, 00:14:26,    346,    0.0,   12.0,   0.00,   0.00, 1017.7,   64.4, -999.0
27-07-2022, 00:14:36,    346,    0.0,   12.1,   0.00,   0.00, 1017.8,   64.4, -999.0
27-07-2022, 00:14:46,    346,    0.0,   12.0,   0.00,   0.00, 1017.8,   64.5, -999.0
27-07-2022, 00:14:56,    346,    0.0,   12.0,   0.00,   0.00, 1017.8,   64.5, -999.0
27-07-2022, 00:15:06,    346,    0.0,   11.9,   0.00,   0.00, 1017.8,   64.5, -999.0
27-07-2022, 00:15:16,    346,    0.0,   11.9,   0.00,   0.00, 1017.8,   64.5, -999.0
27-07-2022, 00:15:26,    346,    0.0,   12.0,   0.00,   0.00, 1017.7,   64.5, -999.0
27-07-2022, 00:15:36,    346,    0.0,   11.9,   0.00,   0.00, 1017.7,   64.7, -999.0
27-07-2022, 00:15:45,    346,    0.0,   12.0,   0.00,   0.00, 1017.7,   64.7, -999.0
27-07-2022, 00:15:56,    346,    0.0,   12.0,   0.00,   0.00, 1017.7,   64.6, -999.0
27-07-2022, 00:16:06,    346,    0.0,   11.9,   0.00,   0.00, 1017.7,   64.5, -999.0
27-07-2022, 00:16:15,    346,    0.0,   11.9,   0.00,   0.00, 1017.8,   64.6, -999.0
27-07-2022, 00:16:26,    346,    0.0,   12.0,   0.00,   0.00, 1017.7,   64.6, -999.0
27-07-2022, 00:16:36,    346,    0.0,   12.0,   0.00,   0.00, 1017.7,   64.6, -999.0
27-07-2022, 00:16:45,    346,    0.0,   12.0,   0.00,   0.00, 1017.7,   64.8, -999.0
27-07-2022, 00:16:55,    346,    0.0,   12.0,   0.00,   0.00, 1017.7,   65.0, -999.0
27-07-2022, 00:17:05,    346,    0.0,   12.0,   0.00,   0.00, 1017.7,   64.8, -999.0
27-07-2022, 00:17:15,    346,    0.0,   12.0,   0.00,   0.00, 1017.7,   64.7, -999.0
27-07-2022, 00:17:25,    346,    0.0,   11.9,   0.00,   0.00, 1017.7,   64.8, -999.0
27-07-2022, 00:17:35,    346,    0.0,   11.9,   0.00,   0.00, 1017.8,   64.9, -999.0
27-07-2022, 00:17:45,    346,    0.0,   11.9,   0.00,   0.00, 1017.7,   64.8, -999.0
27-07-2022, 00:17:55,    346,    0.0,   11.9,   0.00,   0.00, 1017.7,   65.0, -999.0
27-07-2022, 00:18:05,    346,    0.0,   11.8,   0.00,   0.00, 1017.7,   65.0, -999.0
27-07-2022, 00:18:15,    346,    0.0,   11.8,   0.00,   0.00, 1017.7,   65.2, -999.0
27-07-2022, 00:18:25,    346,    0.0,   11.9,   0.00,   0.00, 1017.7,   65.1, -999.0
27-07-2022, 00:18:35,    346,    0.0,   11.8,   0.00,   0.00, 1017.7,   65.2, -999.0
27-07-2022, 00:18:45,    346,    0.0,   11.8,   0.00,   0.00, 1017.7,   65.1, -999.0
27-07-2022, 00:18:55,    346,    0.0,   11.8,   0.00,   0.00, 1017.7,   65.2, -999.0
27-07-2022, 00:19:05,    346,    0.0,   11.9,   0.00,   0.00, 1017.7,   65.3, -999.0
27-07-2022, 00:19:15,    346,    0.0,   11.8,   0.00,   0.00, 1017.7,   65.3, -999.0
27-07-2022, 00:19:24,    346,    0.0,   11.8,   0.00,   0.00, 1017.7,   65.4, -999.0
27-07-2022, 00:19:35,    346,    0.0,   11.9,   0.00,   0.00, 1017.7,   65.4, -999.0
27-07-2022, 00:19:44,    346,    0.0,   11.8,   0.00,   0.00, 1017.8,   65.3, -999.0
27-07-2022, 00:19:54,    346,    0.2,   11.9,   0.00,   0.00, 1017.8,   65.5, -999.0
27-07-2022, 00:20:04,    347,    0.6,   12.0,   0.00,   0.00, 1017.9,   65.8, -999.0
27-07-2022, 00:20:14,    346,    0.0,   11.8,   0.00,   0.00, 1017.7,   65.4, -999.0
27-07-2022, 00:20:24,    346,    0.0,   11.8,   0.00,   0.00, 1017.7,   65.6, -999.0
27-07-2022, 00:20:34,    346,    0.0,   11.8,   0.00,   0.00, 1017.7,   65.4, -999.0
27-07-2022, 00:20:44,    345,    0.0,   11.7,   0.00,   0.00, 1017.7,   65.5, -999.0
27-07-2022, 00:20:54,    346,    0.0,   11.8,   0.00,   0.00, 1017.7,   65.4, -999.0
27-07-2022, 00:21:04,    346,    0.0,   11.8,   0.00,   0.00, 1017.7,   65.5, -999.0
27-07-2022, 00:21:14,    346,    0.0,   11.8,   0.00,   0.00, 1017.7,   65.6, -999.0
27-07-2022, 00:21:24,    346,    0.0,   11.7,   0.00,   0.00, 1017.7,   65.7, -999.0
27-07-2022, 00:21:34,    346,    0.0,   11.8,   0.00,   0.00, 1017.7,   65.7, -999.0
27-07-2022, 00:21:44,    346,    0.0,   11.7,   0.00,   0.00, 1017.7,   65.9, -999.0
27-07-2022, 00:21:53,    346,    0.0,   11.6,   0.00,   0.00, 1017.7,   65.7, -999.0
27-07-2022, 00:22:04,    346,    0.0,   11.7,   0.00,   0.00, 1017.7,   65.8, -999.0
27-07-2022, 00:22:14,    347,    0.0,   11.7,   0.00,   0.00, 1017.7,   65.7, -999.0
27-07-2022, 00:22:23,    346,    0.0,   11.7,   0.00,   0.00, 1017.7,   65.8, -999.0
27-07-2022, 00:22:33,    346,    0.0,   11.8,   0.00,   0.00, 1017.7,   66.1, -999.0
27-07-2022, 00:22:45,    346,    0.0,   11.7,   0.00,   0.00, 1017.7,   65.9, -999.0
27-07-2022, 00:22:53,    346,    0.0,   11.7,   0.00,   0.00, 1017.7,   66.0, -999.0
27-07-2022, 00:23:03,    346,    0.0,   11.8,   0.00,   0.00, 1017.7,   65.8, -999.0
27-07-2022, 00:23:13,    346,    0.0,   11.7,   0.00,   0.00, 1017.7,   65.9, -999.0
27-07-2022, 00:23:23,    346,    0.0,   11.7,   0.00,   0.00, 1017.7,   66.0, -999.0
27-07-2022, 00:23:33,    346,    0.0,   11.7,   0.00,   0.00, 1017.6,   66.0, -999.0
27-07-2022, 00:23:43,    347,    0.0,   11.8,   0.00,   0.00, 1017.7,   66.2, -999.0
27-07-2022, 00:23:53,    346,    0.0,   11.7,   0.00,   0.00, 1017.7,   66.1, -999.0
27-07-2022, 00:24:03,    346,    0.0,   11.8,   0.00,   0.00, 1017.7,   66.1, -999.0
27-07-2022, 00:24:13,    346,    0.0,   11.8,   0.00,   0.00, 1017.7,   66.2, -999.0
27-07-2022, 00:24:23,    346,    0.0,   11.7,   0.00,   0.00, 1017.6,   66.1, -999.0
27-07-2022, 00:24:33,    346,    0.0,   11.7,   0.00,   0.00, 1017.7,   66.1, -999.0
27-07-2022, 00:24:43,    349,    0.0,   11.6,   0.00,   0.00, 1017.6,   66.2, -999.0
27-07-2022, 00:24:53,    346,    0.0,   11.7,   0.00,   0.00, 1017.7,   66.2, -999.0
27-07-2022, 00:25:02,    346,    0.0,   11.8,   0.00,   0.00, 1017.6,   66.2, -999.0
27-07-2022, 00:25:13,    346,    0.0,   11.8,   0.00,   0.00, 1017.6,   66.2, -999.0
27-07-2022, 00:25:23,    346,    0.0,   11.7,   0.00,   0.00, 1017.6,   66.1, -999.0
27-07-2022, 00:25:32,    346,    0.0,   11.8,   0.00,   0.00, 1017.6,   66.2, -999.0
27-07-2022, 00:25:43,    346,    0.0,   11.7,   0.00,   0.00, 1017.6,   66.2, -999.0
27-07-2022, 00:25:52,    347,    0.0,   11.7,   0.00,   0.00, 1017.6,   66.0, -999.0
27-07-2022, 00:26:02,    346,    0.0,   11.7,   0.00,   0.00, 1017.6,   66.2, -999.0
27-07-2022, 00:26:12,    346,    0.0,   11.7,   0.00,   0.00, 1017.6,   66.3, -999.0
27-07-2022, 00:26:22,    346,    0.0,   11.7,   0.00,   0.00, 1017.6,   66.4, -999.0
27-07-2022, 00:26:32,    347,    0.0,   11.7,   0.00,   0.00, 1017.6,   66.4, -999.0
27-07-2022, 00:26:42,    346,    0.0,   11.8,   0.00,   0.00, 1017.6,   66.4, -999.0
27-07-2022, 00:26:52,    346,    0.0,   11.8,   0.00,   0.00, 1017.6,   66.5, -999.0
27-07-2022, 00:27:02,    346,    0.0,   11.7,   0.00,   0.00, 1017.6,   66.3, -999.0
27-07-2022, 00:27:12,    346,    0.0,   11.8,   0.00,   0.00, 1017.6,   66.3, -999.0
27-07-2022, 00:27:22,    346,    0.0,   11.8,   0.00,   0.00, 1017.6,   66.3, -999.0
27-07-2022, 00:27:32,    346,    0.0,   11.8,   0.00,   0.00, 1017.7,   66.4, -999.0
27-07-2022, 00:27:42,    346,    0.0,   11.8,   0.00,   0.00, 1017.6,   66.3, -999.0
27-07-2022, 00:27:52,    346,    0.0,   11.7,   0.00,   0.00, 1017.6,   66.4, -999.0
27-07-2022, 00:28:01,    346,    0.0,   11.7,   0.00,   0.00, 1017.6,   66.4, -999.0
27-07-2022, 00:28:12,    346,    0.0,   11.8,   0.00,   0.00, 1017.6,   66.3, -999.0
27-07-2022, 00:28:22,    346,    0.0,   11.8,   0.00,   0.00, 1017.6,   66.3, -999.0
27-07-2022, 00:28:31,    346,    0.0,   11.8,   0.00,   0.00, 1017.6,   66.4, -999.0
27-07-2022, 00:28:41,    346,    0.0,   11.8,   0.00,   0.00, 1017.6,   66.4, -999.0
27-07-2022, 00:28:52,    346,    0.0,   11.8,   0.00,   0.00, 1017.6,   66.4, -999.0
27-07-2022, 00:29:01,    346,    0.0,   11.7,   0.00,   0.00, 1017.6,   66.3, -999.0
27-07-2022, 00:29:11,    346,    0.0,   11.8,   0.00,   0.00, 1017.6,   66.4, -999.0
27-07-2022, 00:29:21,    346,    0.0,   11.8,   0.00,   0.00, 1017.6,   66.5, -999.0
27-07-2022, 00:29:31,    346,    0.0,   11.8,   0.00,   0.00, 1017.6,   66.4, -999.0
27-07-2022, 00:29:41,    346,    0.0,   11.8,   0.00,   0.00, 1017.6,   66.4, -999.0
27-07-2022, 00:29:51,    346,    0.0,   11.7,   0.00,   0.00, 1017.6,   66.4, -999.0
27-07-2022, 00:30:01,    346,    0.0,   11.8,   0.00,   0.00, 1017.6,   66.4, -999.0
27-07-2022, 00:30:11,    346,    0.0,   11.7,   0.00,   0.00, 1017.6,   66.3, -999.0
27-07-2022, 00:30:21,    346,    0.0,   11.7,   0.00,   0.00, 1017.6,   66.4, -999.0
27-07-2022, 00:30:31,    346,    0.0,   11.7,   0.00,   0.00, 1017.6,   66.5, -999.0
27-07-2022, 00:30:41,    346,    0.0,   11.8,   0.00,   0.00, 1017.6,   66.4, -999.0
27-07-2022, 00:30:51,    346,    0.0,   11.8,   0.00,   0.00, 1017.6,   66.5, -999.0
27-07-2022, 00:31:01,    346,    0.0,   11.7,   0.00,   0.00, 1017.6,   66.5, -999.0
27-07-2022, 00:31:10,    346,    0.0,   11.7,   0.00,   0.00, 1017.6,   66.6, -999.0
27-07-2022, 00:31:21,    346,    0.0,   11.6,   0.00,   0.00, 1017.6,   66.5, -999.0
27-07-2022, 00:31:31,    346,    0.0,   11.7,   0.00,   0.00, 1017.6,   66.5, -999.0
27-07-2022, 00:31:40,    346,    0.4,   11.7,   0.00,   0.00, 1017.6,   66.7, -999.0
27-07-2022, 00:31:50,    346,    0.7,   11.8,   0.00,   0.00, 1017.7,   67.0, -999.0
27-07-2022, 00:32:00,    346,    0.3,   11.8,   0.00,   0.00, 1017.6,   66.8, -999.0
27-07-2022, 00:32:10,    347,    0.2,   11.7,   0.00,   0.00, 1017.6,   66.8, -999.0
27-07-2022, 00:32:20,    346,    0.4,   11.8,   0.00,   0.00, 1017.6,   67.1, -999.0
27-07-2022, 00:32:30,    346,    0.2,   11.7,   0.00,   0.00, 1017.6,   66.8, -999.0
27-07-2022, 00:32:40,    346,    0.0,   11.7,   0.00,   0.00, 1017.6,   66.6, -999.0
27-07-2022, 00:32:50,    346,    0.0,   11.8,   0.00,   0.00, 1017.5,   66.5, -999.0
27-07-2022, 00:33:00,    346,    0.0,   11.7,   0.00,   0.00, 1017.6,   66.7, -999.0
27-07-2022, 00:33:10,    347,    0.0,   11.7,   0.00,   0.00, 1017.6,   66.7, -999.0
27-07-2022, 00:33:20,    346,    0.0,   11.6,   0.00,   0.00, 1017.6,   66.6, -999.0
27-07-2022, 00:33:30,    346,    0.0,   11.6,   0.00,   0.00, 1017.5,   66.7, -999.0
27-07-2022, 00:33:40,    346,    0.0,   11.6,   0.00,   0.00, 1017.5,   66.7, -999.0
27-07-2022, 00:33:50,    346,    0.0,   11.5,   0.00,   0.00, 1017.5,   66.6, -999.0
27-07-2022, 00:34:00,    346,    0.0,   11.6,   0.00,   0.00, 1017.5,   66.7, -999.0
27-07-2022, 00:34:09,    346,    0.0,   11.7,   0.00,   0.00, 1017.5,   66.7, -999.0
27-07-2022, 00:34:20,    346,    0.0,   11.7,   0.00,   0.00, 1017.5,   66.9, -999.0
27-07-2022, 00:34:30,    347,    0.0,   11.6,   0.00,   0.00, 1017.5,   66.7, -999.0
27-07-2022, 00:34:39,    347,    0.4,   11.7,   0.00,   0.00, 1017.6,   67.0, -999.0
27-07-2022, 00:34:49,    346,    0.1,   11.7,   0.00,   0.00, 1017.6,   67.0, -999.0
27-07-2022, 00:35:00,    346,    0.0,   11.7,   0.00,   0.00, 1017.5,   66.9, -999.0
27-07-2022, 00:35:09,    346,    0.0,   11.7,   0.00,   0.00, 1017.5,   66.9, -999.0
27-07-2022, 00:35:19,    346,    0.0,   11.8,   0.00,   0.00, 1017.5,   66.8, -999.0
27-07-2022, 00:35:29,    346,    0.0,   11.7,   0.00,   0.00, 1017.5,   66.8, -999.0
27-07-2022, 00:35:39,    346,    0.0,   11.7,   0.00,   0.00, 1017.5,   66.8, -999.0
27-07-2022, 00:35:49,    346,    0.0,   11.8,   0.00,   0.00, 1017.6,   66.9, -999.0
27-07-2022, 00:35:59,    346,    0.0,   11.7,   0.00,   0.00, 1017.5,   66.8, -999.0
27-07-2022, 00:36:09,    346,    0.0,   11.7,   0.00,   0.00, 1017.5,   66.9, -999.0
27-07-2022, 00:36:19,    346,    0.1,   11.7,   0.00,   0.00, 1017.6,   67.1, -999.0
27-07-2022, 00:36:29,    346,    0.0,   11.7,   0.00,   0.00, 1017.5,   66.8, -999.0
27-07-2022, 00:36:39,    346,    0.0,   11.7,   0.00,   0.00, 1017.5,   66.9, -999.0
27-07-2022, 00:36:49,    346,    0.0,   11.7,   0.00,   0.00, 1017.5,   66.8, -999.0
27-07-2022, 00:36:59,    346,    0.0,   11.7,   0.00,   0.00, 1017.6,   66.8, -999.0
27-07-2022, 00:37:09,    346,    0.0,   11.7,   0.00,   0.00, 1017.5,   66.9, -999.0
27-07-2022, 00:37:18,    346,    0.0,   11.7,   0.00,   0.00, 1017.5,   66.9, -999.0
27-07-2022, 00:37:29,    346,    0.0,   11.7,   0.00,   0.00, 1017.5,   66.9, -999.0
27-07-2022, 00:37:38,    346,    0.0,   11.7,   0.00,   0.00, 1017.5,   67.0, -999.0
27-07-2022, 00:37:48,    346,    0.0,   11.7,   0.00,   0.00, 1017.5,   67.0, -999.0
27-07-2022, 00:37:58,    346,    0.0,   11.7,   0.00,   0.00, 1017.5,   66.9, -999.0
27-07-2022, 00:38:08,    346,    0.0,   11.6,   0.00,   0.00, 1017.5,   67.0, -999.0
27-07-2022, 00:38:18,    346,    0.0,   11.6,   0.00,   0.00, 1017.5,   67.1, -999.0
27-07-2022, 00:38:28,    346,    0.0,   11.7,   0.00,   0.00, 1017.5,   67.0, -999.0
27-07-2022, 00:38:38,    346,    0.0,   11.7,   0.00,   0.00, 1017.5,   67.0, -999.0
27-07-2022, 00:38:48,    346,    0.0,   11.7,   0.00,   0.00, 1017.5,   67.1, -999.0
27-07-2022, 00:38:58,    346,    0.0,   11.7,   0.00,   0.00, 1017.5,   66.9, -999.0
27-07-2022, 00:39:08,    346,    0.0,   11.7,   0.00,   0.00, 1017.5,   67.1, -999.0
27-07-2022, 00:39:18,    346,    0.0,   11.7,   0.00,   0.00, 1017.5,   67.0, -999.0
27-07-2022, 00:39:28,    346,    0.2,   11.6,   0.00,   0.00, 1017.6,   67.2, -999.0
27-07-2022, 00:39:38,    346,    0.3,   11.8,   0.00,   0.00, 1017.6,   67.3, -999.0
27-07-2022, 00:39:48,    346,    0.0,   11.7,   0.00,   0.00, 1017.5,   67.0, -999.0
27-07-2022, 00:39:58,    346,    0.5,   11.7,   0.00,   0.00, 1017.6,   67.4, -999.0
27-07-2022, 00:40:08,    347,    0.0,   11.7,   0.00,   0.00, 1017.5,   67.1, -999.0
27-07-2022, 00:40:17,    346,    0.0,   11.7,   0.00,   0.00, 1017.6,   67.2, -999.0
27-07-2022, 00:40:28,    346,    0.0,   11.8,   0.00,   0.00, 1017.5,   67.1, -999.0
27-07-2022, 00:40:38,    346,    0.0,   11.7,   0.00,   0.00, 1017.5,   67.2, -999.0
27-07-2022, 00:40:47,    346,    0.0,   11.8,   0.00,   0.00, 1017.5,   67.1, -999.0
27-07-2022, 00:40:57,    346,    0.0,   11.7,   0.00,   0.00, 1017.5,   67.1, -999.0
27-07-2022, 00:41:08,    346,    0.0,   11.7,   0.00,   0.00, 1017.5,   67.1, -999.0
27-07-2022, 00:41:17,    346,    0.0,   11.7,   0.00,   0.00, 1017.5,   67.1, -999.0
27-07-2022, 00:41:27,    346,    0.0,   11.7,   0.00,   0.00, 1017.5,   67.1, -999.0
27-07-2022, 00:41:37,    347,    0.0,   11.7,   0.00,   0.00, 1017.5,   67.0, -999.0
27-07-2022, 00:41:47,    346,    0.0,   11.7,   0.00,   0.00, 1017.5,   67.0, -999.0
27-07-2022, 00:41:57,    346,    0.0,   11.7,   0.00,   0.00, 1017.5,   67.0, -999.0
27-07-2022, 00:42:07,    346,    0.0,   11.7,   0.00,   0.00, 1017.5,   67.1, -999.0
27-07-2022, 00:42:17,    346,    0.0,   11.7,   0.00,   0.00, 1017.6,   67.0, -999.0
27-07-2022, 00:42:27,    346,    0.0,   11.7,   0.00,   0.00, 1017.5,   67.0, -999.0
27-07-2022, 00:42:37,    346,    0.0,   11.6,   0.00,   0.00, 1017.5,   67.1, -999.0
27-07-2022, 00:42:47,    346,    0.0,   11.7,   0.00,   0.00, 1017.5,   67.1, -999.0
27-07-2022, 00:42:57,    346,    0.0,   11.6,   0.00,   0.00, 1017.5,   67.1, -999.0
27-07-2022, 00:43:07,    346,    0.0,   11.7,   0.00,   0.00, 1017.4,   67.1, -999.0
27-07-2022, 00:43:17,    346,    0.0,   11.7,   0.00,   0.00, 1017.5,   67.2, -999.0
27-07-2022, 00:43:26,    346,    0.0,   11.7,   0.00,   0.00, 1017.5,   67.1, -999.0
27-07-2022, 00:43:37,    346,    0.0,   11.7,   0.00,   0.00, 1017.5,   67.1, -999.0
27-07-2022, 00:43:46,    346,    0.0,   11.5,   0.00,   0.00, 1017.5,   67.1, -999.0
27-07-2022, 00:43:56,    346,    0.0,   11.5,   0.00,   0.00, 1017.5,   67.0, -999.0
27-07-2022, 00:44:06,    346,    0.0,   11.6,   0.00,   0.00, 1017.5,   67.1, -999.0
27-07-2022, 00:44:16,    346,    0.0,   11.6,   0.00,   0.00, 1017.5,   67.1, -999.0
27-07-2022, 00:44:26,    346,    0.0,   11.6,   0.00,   0.00, 1017.5,   67.2, -999.0
27-07-2022, 00:44:36,    346,    0.0,   11.6,   0.00,   0.00, 1017.5,   67.5, -999.0
27-07-2022, 00:44:46,    346,    0.0,   11.6,   0.00,   0.00, 1017.5,   67.5, -999.0
27-07-2022, 00:44:56,    346,    0.0,   11.6,   0.00,   0.00, 1017.5,   67.4, -999.0
27-07-2022, 00:45:06,    346,    0.0,   11.6,   0.00,   0.00, 1017.5,   67.4, -999.0
27-07-2022, 00:45:16,    346,    0.0,   11.6,   0.00,   0.00, 1017.6,   67.3, -999.0
27-07-2022, 00:45:26,    346,    0.0,   11.6,   0.00,   0.00, 1017.6,   67.4, -999.0
27-07-2022, 00:45:36,    346,    0.0,   11.6,   0.00,   0.00, 1017.5,   67.4, -999.0
27-07-2022, 00:45:46,    346,    0.0,   11.6,   0.00,   0.00, 1017.6,   67.5, -999.0
27-07-2022, 00:45:56,    346,    0.0,   11.6,   0.00,   0.00, 1017.6,   67.5, -999.0
27-07-2022, 00:46:06,    346,    0.0,   11.6,   0.00,   0.00, 1017.6,   67.5, -999.0
27-07-2022, 00:46:16,    346,    0.0,   11.6,   0.00,   0.00, 1017.5,   67.5, -999.0
27-07-2022, 00:46:25,    346,    0.0,   11.6,   0.00,   0.00, 1017.5,   67.5, -999.0
27-07-2022, 00:46:35,    346,    0.0,   11.6,   0.00,   0.00, 1017.5,   67.5, -999.0